DL8BNG-13 Weather Reports


time (UTC)temp
C
wind
direction
speed
KPH
gust
KPH
rain 1hr
cm
rain 24hr
cm
rain mn
cm
humidity
%
barometer
mb
20260507140002 12 175 6.4 0.0 0.00 0.00 0.58 72
20260507134503 12 187 8.0 0.0 0.00 0.00 0.58 73
20260507133002 12 150 6.4 0.0 0.00 0.00 0.58 72
20260507131502 13 185 6.4 0.0 0.00 0.00 0.58 71
20260507130003 13 202 17.7 0.0 0.00 0.00 0.58 71
20260507124502 12 165 6.4 0.0 0.00 0.00 0.58 72
20260507123002 12 150 6.4 0.0 0.00 0.00 0.58 75
20260507121503 11 80 4.8 0.0 0.00 0.00 0.58 78
20260507120002 11 175 8.0 0.0 0.00 0.00 0.58 77
20260507114503 11 185 6.4 0.0 0.00 0.00 0.58 77
20260507113002 11 152 4.8 0.0 0.00 0.00 0.58 79
20260507111503 10 165 8.0 0.0 0.00 0.00 0.58 81
20260507110002 10 157 6.4 0.0 0.00 0.00 0.58 81
20260507104503 10 167 4.8 0.0 0.00 0.00 0.58 81
20260507103002 11 160 3.2 0.0 0.00 0.00 0.58 83
20260507101502 10 137 3.2 0.0 0.00 0.00 0.58 84
20260507100002 10 255 6.4 0.0 0.00 0.00 0.58 83
20260507094503 10 195 4.8 0.0 0.00 0.00 0.58 83
20260507093002 10 200 8.0 0.0 0.00 0.00 0.58 83
20260507091502 10 17 3.2 0.0 0.00 0.00 0.58 83
20260507090002 10 202 4.8 0.0 0.00 0.00 0.58 84
20260507084502 10 140 9.7 0.0 0.00 0.00 0.58 83
20260507083002 11 147 4.8 0.0 0.00 0.00 0.58 82
20260507081502 11 170 4.8 0.0 0.00 0.00 0.58 83
20260507080002 10 182 8.0 0.0 0.00 0.00 0.58 84
20260507074502 10 145 6.4 0.0 0.00 0.00 0.58 85
20260507073003 10 167 4.8 0.0 0.00 0.00 0.58 85
20260507071502 10 190 4.8 0.0 0.00 0.00 0.58 85
20260507070003 10 285 0.0 0.0 0.00 0.00 0.58 86
20260507064502 10 140 4.8 0.0 0.00 0.00 0.58 86
20260507063002 10 232 6.4 0.0 0.00 0.00 0.58 87
20260507061502 10 195 4.8 0.0 0.00 0.00 0.56 87
20260507060001 10 297 4.8 0.0 0.00 0.00 0.56 87
20260507054502 10 292 3.2 0.0 0.00 0.00 0.56 87
20260507053003 10 300 4.8 0.0 0.00 0.00 0.56 87
20260507051501 10 115 3.2 0.0 0.00 0.00 0.56 88
20260507050001 10 132 3.2 0.0 0.00 0.00 0.56 88
20260507044502 10 185 4.8 0.0 0.00 0.00 0.56 88
20260507043002 9 162 4.8 0.0 0.00 0.00 0.56 88
20260507041502 9 22 3.2 0.0 0.00 0.00 0.56 89
20260507040003 9 160 3.2 0.0 0.00 0.00 0.53 89
20260507034503 10 100 0.0 0.0 0.00 0.00 0.51 89
20260507033003 10 130 3.2 0.0 0.00 0.00 0.48 89
20260507031503 10 212 4.8 0.0 0.00 0.00 0.48 89
20260507030003 10 212 6.4 0.0 0.00 0.00 0.48 89
20260507024503 10 202 4.8 0.0 0.00 0.00 0.43 89
20260507023003 10 125 3.2 0.0 0.00 0.00 0.43 89
20260507021502 10 185 3.2 0.0 0.00 0.00 0.41 88
20260507020003 10 210 6.4 0.0 0.00 0.00 0.41 88
20260507014503 10 172 6.4 0.0 0.00 0.00 0.38 88
20260507013003 10 195 3.2 0.0 0.00 0.00 0.38 88
20260507011502 10 180 8.0 0.0 0.00 0.00 0.38 88
20260507010003 11 202 9.7 0.0 0.00 0.00 0.38 88
20260507004502 11 212 6.4 0.0 0.00 0.00 0.38 88
20260507003001 11 195 4.8 0.0 0.00 0.00 0.36 88
20260507001503 11 190 4.8 0.0 0.00 0.00 0.36 88
20260507000003 11 185 4.8 0.0 0.00 0.00 0.36 89
20260506234502 11 195 0.0 0.0 0.00 0.00 0.36 88
20260506233003 11 202 0.0 0.0 0.00 0.00 0.33 88
20260506231503 11 160 0.0 0.0 0.00 0.00 0.33 87
20260506230002 12 195 0.0 0.0 0.00 0.00 0.28 87
20260506224502 12 210 0.0 0.0 0.00 0.00 0.20 86
20260506223002 12 195 3.2 0.0 0.00 0.00 0.15 85
20260506221504 12 262 4.8 0.0 0.00 0.00 0.08 83
20260506220004 13 190 3.2 0.0 0.00 0.00 0.13 80
20260506214502 13 190 0.0 0.0 0.00 0.00 0.13 79
20260506213002 13 185 4.8 0.0 0.00 0.00 0.13 79
20260506211502 13 225 4.8 0.0 0.00 0.00 0.13 80
20260506210002 13 195 0.0 0.0 0.00 0.00 0.13 80
20260506204503 13 185 0.0 0.0 0.00 0.00 0.13 80
20260506203002 13 177 4.8 0.0 0.00 0.00 0.13 79
20260506201502 13 190 6.4 0.0 0.00 0.00 0.13 79
20260506200002 13 235 20.9 0.0 0.00 0.00 0.13 76
20260506194502 13 217 6.4 0.0 0.00 0.00 0.13 74
20260506193002 13 202 6.4 0.0 0.00 0.00 0.13 74
20260506191503 13 215 6.4 0.0 0.00 0.00 0.13 74
20260506190002 14 235 4.8 0.0 0.00 0.00 0.13 73
20260506184504 14 227 6.4 0.0 0.00 0.00 0.13 72
20260506183001 15 215 8.0 0.0 0.00 0.00 0.13 70
20260506181502 15 222 6.4 0.0 0.00 0.00 0.13 67
20260506180003 16 245 9.7 0.0 0.00 0.00 0.13 63
20260506174503 16 195 6.4 0.0 0.00 0.00 0.13 62
20260506173003 16 200 6.4 0.0 0.00 0.00 0.13 61
20260506171501 16 235 9.7 0.0 0.00 0.00 0.13 62
20260506170003 17 225 6.4 0.0 0.00 0.00 0.13 63
20260506164503 17 215 4.8 0.0 0.00 0.00 0.13 63
20260506163003 17 205 4.8 0.0 0.00 0.00 0.13 62
20260506161502 17 195 9.7 0.0 0.00 0.00 0.13 62
20260506160003 17 165 6.4 0.0 0.00 0.00 0.13 59
20260506154502 17 170 8.0 0.0 0.00 0.00 0.13 58
20260506153003 18 185 9.7 0.0 0.00 0.00 0.13 56
20260506151503 19 155 4.8 0.0 0.00 0.00 0.13 51
20260506150002 19 275 4.8 0.0 0.00 0.00 0.13 51
20260506144502 20 210 4.8 0.0 0.00 0.00 0.13 49
20260506143002 20 210 4.8 0.0 0.00 0.00 0.13 51
20260506141502 19 192 4.8 0.0 0.00 0.00 0.13 52